• In Uzbekistan
  • List of Countries
  • For 7 days
  • Water Temperature
  • Satellite Maps
  • Weather Map
  • Weather Widgets
  • user-avatar
    Login

    Hourly Weather Paszto

    Today, 21 July, Saturday

    Time Temperature Precipitation Wind Pressure Humidity
    00:00 +20°C° 0 mm 1 mps 745 mmHg 85%
    01:00 +20°C° 0 mm 1 mps 745 mmHg 86%
    02:00 +20°C° 0 mm 1 mps 745 mmHg 87%
    03:00 +19°C° 0 mm 1 mps 745 mmHg 87%
    04:00 +19°C° 0 mm 1 mps 745 mmHg 88%
    05:00 +21°C° 0 mm 1 mps 745 mmHg 83%
    06:00 +22°C° 0 mm 1 mps 745 mmHg 78%
    07:00 +24°C° 0 mm 1 mps 745 mmHg 72%
    08:00 +25°C° 0 mm 1 mps 745 mmHg 66%
    09:00 +27°C° 0 mm 1 mps 745 mmHg 61%
    10:00 +28°C° 0 mm 2 mps 745 mmHg 55%
    11:00 +29°C° 0.1 mm 2 mps 745 mmHg 52%
    12:00 +30°C° 0.1 mm 2 mps 744 mmHg 49%
    13:00 +31°C° 0.1 mm 2 mps 744 mmHg 46%
    14:00 +30°C° 0.1 mm 2 mps 744 mmHg 48%
    15:00 +30°C° 0.1 mm 2 mps 744 mmHg 50%
    16:00 +30°C° 0.1 mm 2 mps 743 mmHg 53%
    17:00 +28°C° 0.2 mm 1 mps 743 mmHg 58%
    18:00 +27°C° 0.2 mm 1 mps 743 mmHg 63%
    19:00 +26°C° 0.2 mm 1 mps 743 mmHg 69%
    20:00 +25°C° 1 mm 1 mps 743 mmHg 72%
    21:00 +24°C° 1 mm 1 mps 743 mmHg 76%
    22:00 +23°C° 1 mm 1 mps 743 mmHg 80%
    23:00 +22°C° 1.5 mm 1 mps 743 mmHg 83%

    Tomorrow, 22 July, Sunday

    Time Temperature Precipitation Wind Pressure Humidity
    00:00 +21°C° 1.5 mm 1 mps 743 mmHg 86%
    01:00 +21°C° 1.5 mm 1 mps 743 mmHg 89%
    02:00 +21°C° 0.6 mm 1 mps 743 mmHg 90%
    03:00 +20°C° 0.6 mm 1 mps 743 mmHg 91%
    04:00 +20°C° 0.6 mm 1 mps 743 mmHg 92%
    05:00 +20°C° 0.1 mm 2 mps 743 mmHg 89%
    06:00 +21°C° 0.1 mm 2 mps 743 mmHg 87%
    07:00 +23°C° 0.1 mm 2 mps 743 mmHg 84%
    08:00 +25°C° 0.5 mm 2 mps 743 mmHg 78%
    09:00 +26°C° 0.5 mm 2 mps 742 mmHg 72%
    10:00 +28°C° 0.5 mm 2 mps 742 mmHg 66%
    11:00 +29°C° 1.2 mm 2 mps 742 mmHg 64%
    12:00 +29°C° 1.2 mm 2 mps 742 mmHg 61%
    13:00 +30°C° 1.2 mm 2 mps 742 mmHg 58%
    14:00 +30°C° 1.1 mm 2 mps 742 mmHg 58%
    15:00 +30°C° 1.1 mm 2 mps 741 mmHg 58%
    16:00 +30°C° 1.1 mm 1 mps 741 mmHg 58%
    17:00 +29°C° 0.7 mm 1 mps 741 mmHg 64%
    18:00 +27°C° 0.7 mm 1 mps 741 mmHg 69%
    19:00 +25°C° 0.7 mm 1 mps 741 mmHg 75%
    20:00 +25°C° 0.8 mm 1 mps 741 mmHg 79%
    21:00 +24°C° 0.8 mm 1 mps 741 mmHg 82%
    22:00 +23°C° 0.8 mm 2 mps 741 mmHg 85%
    23:00 +22°C° 0.2 mm 1 mps 741 mmHg 87%

    Day after tomorrow, 23 July, Monday

    Time Temperature Precipitation Wind Pressure Humidity
    00:00 +22°C° 0.2 mm 1 mps 741 mmHg 89%
    01:00 +21°C° 0.2 mm 1 mps 741 mmHg 91%
    02:00 +20°C° 1 mm 2 mps 741 mmHg 91%
    03:00 +19°C° 1 mm 2 mps 741 mmHg 92%
    04:00 +19°C° 1 mm 2 mps 741 mmHg 93%
    05:00 +20°C° 0.4 mm 2 mps 741 mmHg 91%
    06:00 +21°C° 0.4 mm 2 mps 741 mmHg 88%
    07:00 +23°C° 0.4 mm 2 mps 741 mmHg 85%
    08:00 +24°C° 0.4 mm 3 mps 741 mmHg 77%
    09:00 +26°C° 0.4 mm 3 mps 741 mmHg 68%
    10:00 +28°C° 0.4 mm 4 mps 741 mmHg 60%
    11:00 +28°C° 1.1 mm 3 mps 741 mmHg 61%
    12:00 +28°C° 1.1 mm 3 mps 741 mmHg 62%
    13:00 +29°C° 1.1 mm 3 mps 741 mmHg 63%
    14:00 +29°C° 0.6 mm 3 mps 741 mmHg 61%
    15:00 +29°C° 0.6 mm 2 mps 741 mmHg 60%
    16:00 +29°C° 0.6 mm 1 mps 741 mmHg 59%
    17:00 +28°C° 0.2 mm 1 mps 741 mmHg 63%
    18:00 +26°C° 0.2 mm 1 mps 741 mmHg 66%
    19:00 +25°C° 0.2 mm 2 mps 741 mmHg 70%
    20:00 +24°C° 0.1 mm 2 mps 741 mmHg 72%
    21:00 +23°C° 0.1 mm 2 mps 742 mmHg 75%
    22:00 +21°C° 0.1 mm 3 mps 742 mmHg 77%
    23:00 +21°C° 0 mm 2 mps 742 mmHg 78%

    24 July, Tuesday

    Time Temperature Precipitation Wind Pressure Humidity
    00:00 +20°C° 0 mm 2 mps 742 mmHg 80%
    01:00 +19°C° 0 mm 2 mps 742 mmHg 81%
    02:00 +19°C° 0 mm 2 mps 742 mmHg 82%
    03:00 +19°C° 0 mm 2 mps 742 mmHg 83%
    04:00 +19°C° 0 mm 2 mps 742 mmHg 84%
    05:00 +20°C° 0 mm 3 mps 743 mmHg 79%
    06:00 +22°C° 0 mm 3 mps 743 mmHg 74%
    07:00 +24°C° 0 mm 3 mps 743 mmHg 69%
    08:00 +26°C° 0 mm 3 mps 743 mmHg 62%
    09:00 +27°C° 0 mm 3 mps 743 mmHg 55%
    10:00 +29°C° 0 mm 3 mps 743 mmHg 48%
    11:00 +30°C° 0 mm 3 mps 743 mmHg 46%
    12:00 +31°C° 0 mm 2 mps 743 mmHg 43%
    13:00 +31°C° 0 mm 2 mps 742 mmHg 40%
    14:00 +31°C° 0 mm 2 mps 742 mmHg 42%
    15:00 +30°C° 0 mm 2 mps 742 mmHg 45%
    16:00 +30°C° 0 mm 2 mps 742 mmHg 48%
    17:00 +29°C° 0.1 mm 2 mps 742 mmHg 54%
    18:00 +27°C° 0.1 mm 2 mps 742 mmHg 59%
    19:00 +26°C° 0.1 mm 1 mps 742 mmHg 64%
    20:00 +24°C° 0.3 mm 2 mps 742 mmHg 70%
    21:00 +23°C° 0.3 mm 2 mps 742 mmHg 75%
    22:00 +21°C° 0.3 mm 2 mps 743 mmHg 81%
    23:00 +20°C° 1 mm 2 mps 743 mmHg 83%

    25 July, Wednesday

    Time Temperature Precipitation Wind Pressure Humidity
    00:00 +20°C° 1 mm 2 mps 742 mmHg 86%
    01:00 +19°C° 1 mm 2 mps 742 mmHg 89%
    02:00 +20°C° 0.5 mm 1 mps 743 mmHg 89%
    03:00 +20°C° 0.5 mm 1 mps 743 mmHg 89%
    04:00 +19°C° 0.5 mm 1 mps 743 mmHg 89%
    05:00 +20°C° 0.2 mm 1 mps 743 mmHg 85%
    06:00 +22°C° 0.2 mm 1 mps 743 mmHg 82%
    07:00 +23°C° 0.2 mm 1 mps 744 mmHg 79%
    08:00 +24°C° 0.9 mm 1 mps 744 mmHg 72%
    09:00 +26°C° 0.9 mm 1 mps 744 mmHg 65%
    10:00 +27°C° 0.9 mm 1 mps 743 mmHg 58%
    11:00 +28°C° 0.1 mm 2 mps 743 mmHg 54%
    12:00 +29°C° 0.1 mm 2 mps 743 mmHg 50%
    13:00 +30°C° 0.1 mm 2 mps 743 mmHg 47%
    14:00 +30°C° 0 mm 2 mps 743 mmHg 47%
    15:00 +30°C° 0 mm 2 mps 742 mmHg 48%
    16:00 +30°C° 0 mm 1 mps 742 mmHg 48%
    17:00 +28°C° 0 mm 1 mps 742 mmHg 54%
    18:00 +27°C° 0 mm 1 mps 742 mmHg 60%
    19:00 +26°C° 0 mm 1 mps 742 mmHg 65%
    20:00 +25°C° 0 mm 1 mps 743 mmHg 68%
    21:00 +24°C° 0 mm 1 mps 743 mmHg 72%
    22:00 +23°C° 0 mm 1 mps 743 mmHg 75%
    23:00 +22°C° 0 mm 1 mps 743 mmHg 77%

    26 July, Thursday

    Time Temperature Precipitation Wind Pressure Humidity
    00:00 +22°C° 0 mm 1 mps 743 mmHg 80%
    01:00 +21°C° 0 mm 1 mps 743 mmHg 83%
    02:00 +21°C° 0 mm 1 mps 743 mmHg 84%
    03:00 +20°C° 0 mm 1 mps 743 mmHg 85%
    04:00 +20°C° 0 mm 1 mps 743 mmHg 86%
    05:00 +21°C° 0.2 mm 1 mps 743 mmHg 81%
    06:00 +23°C° 0.2 mm 1 mps 744 mmHg 77%
    07:00 +24°C° 0.2 mm 1 mps 744 mmHg 72%
    08:00 +26°C° 0.5 mm 1 mps 744 mmHg 68%
    09:00 +27°C° 0.5 mm 1 mps 744 mmHg 63%
    10:00 +27°C° 0.5 mm 0 mps 744 mmHg 59%
    11:00 +30°C° 0.2 mm 1 mps 744 mmHg 56%
    12:00 +30°C° 0.2 mm 1 mps 744 mmHg 53%
    13:00 +31°C° 0.2 mm 2 mps 744 mmHg 50%
    14:00 +31°C° 0.2 mm 2 mps 744 mmHg 51%
    15:00 +31°C° 0.2 mm 2 mps 744 mmHg 52%
    16:00 +30°C° 0.2 mm 2 mps 744 mmHg 53%
    17:00 +29°C° 0.2 mm 1 mps 744 mmHg 58%
    18:00 +28°C° 0.2 mm 1 mps 744 mmHg 63%
    19:00 +26°C° 0.2 mm 1 mps 744 mmHg 69%
    20:00 +25°C° 0.1 mm 1 mps 744 mmHg 72%
    21:00 +24°C° 0.1 mm 1 mps 744 mmHg 75%
    22:00 +24°C° 0.1 mm 2 mps 744 mmHg 78%
    23:00 +23°C° 0 mm 2 mps 744 mmHg 80%
    Show more